Погода в Херсоне

Погода в Херсоне : погода сейчас, прогноз погоды и архив. Всё, что Вы хотите узнать о погоде в Херсоне!

Хотите узнать прогноз погоды в Херсоне? Тогда Вам сюда: Погода в Херсоне

Поиск расширенной информации на нашем сайте:

Другие новости

Новости СМИ2

Главная страница сайта

Новости сайта

03.07.2017

Напоминаем, что на нашем специализированном сайте Метеоцентр.Азия вы можете получить высокодетализированные автоматические прогнозы погоды по пунктам России, СНГ и мира в авиационном формате (включающие направление и скорость ветра, видимость, явления погоды, количество и форму облачности, нижнюю и верхнюю границу облачности).

Рекомендуем: Какие банки выдают кредиты в Херсоне.

Погода в Херсоне - сегодня

Время (UTC), дата Ветер
(°,м/с) 
Видим.   Явления Облачность Т
(°С)
Тd
(°С)
f(%) Тe
(°С)
Pmin
(гПа)
dP
(гПа)
Po
(мм)
O2
(г/м3)
Тmin Tmax R s Состояние
почвы
03 21.09.17 360 (С) 4000 м  дымка  4/3 600 м средняя 
[Sc|Ac trans]
+18.6 +17.3 92 +33  1009.4  0.3  752  280           
06 21.09.17 090 (В) 2000 м  в посл. час туман  9/9 600 м 
[Cu med, cong]
+21 +19.7 92 +39  1008.5  -0.8  752  276  +17.9         
09 21.09.17 160 (Ю) 20000 м    3/1 600 м средняя 
[Cu med, cong|Ac cuf]
+29.5 +16.6 46 +41  1008  -0.4  751  270           
12 21.09.17 180 (Ю) 20000 м    5/3 600 м кучево-дожд., средняя 
[Cb calv|Ac cuf]
+30.6 +14.4 37 +38  1007.2  -0.7  751  269           
15 21.09.17 180 (Ю) 20000 м    8/5 300 м кучево-дожд., средняя 
[Cb calv|Ac cuf]
+27.4 +17.8 56 +41  1007.8  0.5  751  271           
18 21.09.17 270 (З) 10 км  {ливн. осадки}  4/4 2000 м средняя 
[Ac cuf]
+23.5 +20.3 82 +43  1008.1  0.2  751  274    +32  0.0     
21 21.09.17 300 (СЗ) 4000 м  дымка  3/3 2000 м средняя 
[Ac lent]
+20.2 +18.3 89 +35  1008.6  0.5  752  278           
00 22.09.17 340 (С) 4000 м  дымка  8/4 600 м кучево-дожд., средняя 
[Cb calv|Ac cuf]
+20.3 +19 92 +37  1007.4  -1.2  751  277           
03 22.09.17 360 (С) 4000 м  дымка  9/6 600 м кучево-дожд., средняя 
[Cb calv|Ac cuf]
+20.2 +18.6 91 +36  1007  -0.4  751  277           
06 22.09.17 310 (СЗ) 10 км    9/4 600 м средняя, верхняя 
[Sc|Ac cuf|Ci fib]
+21.2 +17.8 81 +35  1007.1  0.1  751  277  +20         
09 22.09.17 300 (СЗ) 10 км    9/6 600 м кучево-дожд., средняя 
[Cb calv|Ac cuf]
+22 +12.7 56 +27  1006.8  -0.3  750  277           
12 22.09.17 220 (ЮЗ) 10 км  в посл. час ливневой дождь  10/10 600 м кучево-дожд. 
[Cb calv]
+20 +12.3 61 +24  1009.9  753  280      0.0     
15 22.09.17 260 (З) 10 км  {ливн. осадки}  8/4 600 м кучево-дожд., средняя 
[Cb calv|Ac und]
+17.4 +11.9 70 +22  1011.6  1.7  754  283           
18 22.09.17 190 (Ю) 4000 м  дымка{ливн. осадки}  ясно 
+15.4 +14.3 93 +23  1013.9  2.2  756  285    +23.5  0.0     
21 22.09.17 тихо ()   4000 м  дымка  ясно 
+13.1 +12.5 96 +18  1014.8  0.8  756  288           
00 23.09.17 тихо ()   4000 м  дымка  5/5 2000 м средняя 
[Ac und]
+11.6 +11 96 +14  1016.4  1.6  757  291           
03 23.09.17 тихо ()   4000 м  дымка  3/1 2000 м средняя, верхняя 
[Ac lent|Ci fib]
+11.8 +10.8 94 +14  1016.5  0.1  758  291           
06 23.09.17 080 (В) 4000 м  дымка  9/6 2000 м средняя, верхняя 
[Ac und|Ci fib]
+14.4 +13.7 96 +22  1017.6  1.2  758  288  +11.3         
09 23.09.17 050 (СВ) 10 км    10/6 600 м кучево-дожд., средняя, верхняя 
[Cb calv|Ac trans|Ci fib]
+18.8 +13.9 73 +26  1017.4  -0.1  758  283           
12 23.09.17 070 (В) 10 км  в посл. час ливневой дождь  10/6 600 м кучево-дожд., верхняя 
[Cb calv|Ci fib]
+16.8 +15.1 90 +26  1017.3  -0.2  758  285      0.7     
15 23.09.17 100 (В) 10 км    10/10 600 м кучево-дожд. 
[Cb calv]
+16.5 +14.6 89 +25  1018.1  0.8  759  285           
18 23.09.17 070 (В) 4000 м  дымка  10/10 600 м кучево-дожд. 
[Cb calv]
+15.9 +14.7 93 +25  1018.4  0.3  759  286    +19  0.7     
21 23.09.17 050 (СВ) 4000 м  дымка  10/10 600 м 
[Sc]
+14.4 +13.7 96 +22  1018.3  -0.1  759  288           
00 24.09.17 090 (В) 4000 м  дымка  10/10 600 м 
[Sc]
+14.5 +13.8 96 +22  1018.3  759  288           
03 24.09.17 080 (В) 2000 м  дымка  10/10 600 м 
[Sc]
+13.2 +12.6 96 +19  1018.5  0.1  759  289           
Время (UTC), дата Ветер
(°,м/с) 
Видим.   Явления Облачность Т
(°С)
Тd
(°С)
f(%) Тe
(°С)
Pmin
(гПа)
dP
(гПа)
Po
(мм)
O2
(г/м3)
Тmin Tmax R s Состояние
почвы

Для получения пояснительной информации подведите курсор к названию столбца.

ПОГОДА в Херсоне - архив

Всё, что Вы хотите узнать о погоде в Херсоне - удобно и подробно!

Выберите нужную дату (начиная с 1 января 2015* года) и нажмите кнопку "Найти".
Будут отображены архивные сводки погоды по пункту Херсон, начиная с указанной даты.


Отображать данные в формате CSV (для использования в таблицах Excel)


Внимание! Наш архив погоды предназначен исключительно для личного некоммерческого использования в познавательных целях. Если Вам необходимы официальные справки о состоянии погоды (для производственных, юридических, коммерческих и т.п. целей), обращайтесь в органы Росгидромета.

*Примечание: данная дата относится к архиву по метеостанциям СССР (Россия, СНГ, Балтия).
Архив по метеостанциям Зарубежной Европы и Азии (кроме Китая) хранится 10 дней, по другим регионам земного шара (Китай, Африка, Америка, Австралия, Океания) - 1 день.

Херсон - район местоположения метеостанции


Название, широта, долгота, высота метеостанции:
Херсон 46.6°ш. 32.6°д. 54 м над ур. моря [Украина]

Дополнительная информация

В oтличие oт бoльшинства пoгoдных сайтoв мы публикуем пoдрoбную метеoинфoрмацию в детальнoм прoфессиoнальнoм фoрмате.

Характеристики температуры и влажнoсти вoздуха измеряются на высoте 2 м в тени вдали oт зданий и деревьев.
Скoрoсть ветра измеряется на высoте 10 м (на урoвне рoста челoвека скoрoсть ветра ниже в 1.5-2 раза). Если метеoстанция нахoдится в гoрoде или в лесу, тo скoрoсть ветра занижена на 2-4 м/с пo сравнению с oткрытым местoм. Скoрoсть ветра над акватoриями крупных рек и oзёр, а также на вершинах хoлмoв на 2-5 м/с выше, чем в oбычных услoвиях.
Атмoсфернoе давление в разных тoчках местнoсти мoжет значительнo oтличаться oт давления на метеoстанции, в зависимoсти oт услoвий рельефа (при пoдъёме на 10 м давление пoнижается примернo на 1 мм рт.ст.).